DECAYED

CZ-4 DEB, 26275 (Decayed)

Orbit data source: Space-Track

CZ-4 DEB, 26275 was space debris in SSO originally from a launch on Thu, 14 Oct 1999 UTC launched from the Taiyaun Space Center, China (TSC). Debris objects in space refer to the collection of defunct objects orbiting the Earth. Examples of debris include non-operational satellites, rocket bodies, and fragments generated from explosions, collisions, or faulty payload assembly.

Not visible in the next 10 days
Identifier
26275, 1999-057FM
Orbit
Decayed
Country
Flag of CNCN / PRC
Related business
Manufacturer
Unknown
Mission
Decayed spacecraft
Bus & Motor
Unknown
Mass
Unknown
Launch date (UTC)
1999-10-14 (26 years ago)
Launch vehicle
Unknown
Launch site
Taiyaun Space Center, China (TSC)
Object type
Payload
Rocket body
Debris
Shape & HBR
Unknown shape, 0.1 m
Radar Cross Section
Small (<0.1 m²)

Expand to show TLE details & history
Last TLE update: 7 months ago

TLE from 7 months ago
0 CZ-4 DEB
1 26275U 99057FM  25098.12622297  .05582464  78299-1  88629-2 0  9992
2 26275  98.0579 167.4521 0017359 272.5979  87.3315 16.08987058332562
Epoch: 2025-04-08T03:01Z
TLE epoch observation values (Epoch: 2025-04-08T03:01:45.664Z)
Latitude
-0.00001°
Longitude
-74.61994°
Altitude
252.297 km
Speed
7.756 km/s
True Right ascension
11h 09m 48s
True Declination
0° 00' 00"
Sunlit
Object was in full shadow at epoch
Visualization orbit readout
Latitude
Unknown
Longitude
Unknown
Altitude
Unknown
Speed
Unknown
Apparent Right ascension
Unknown
Apparent Declination
Unknown
Sunlit
N/A
Visualization observer readout
Local Sidereal Time
09:44:06
Azimuth
Unknown
Elevation
Unknown
Doppler factor
Unknown
Orbital elements
Apogee altitude
258.002 km
Perigee altitude
235.002 km
Semi-major axis
6,624.639 km
Eccentricity
0.00174
Inclination
98.0579°
RAAN
167.4521°
Arg. of periapsis
272.5979°
True anomaly
87.53022°
Mean anomaly
87.3315°
Eccentric anomaly
87.43086°
Mean motion
4.02531 °/min
Orbital period
89.43 mins
BSTAR
0.0088629
Loading maneuver chart data...
Computing Atmospheric mass density...
Loading historical data...
Loading historical data...
Loading historical data...
Loading historical data...
Loading historical data...
Loading historical data...
Loading historical data...

Documentation

Showing up to 5 results
|